FW6151 Weather Reports


Display with metric or nautical units.
time (UTC)temp
F
wind
direction
speed
MPH
gust
MPH
rain 1hr
in
rain 24hr
in
rain mn
in
humidity
%
barometer
mb
20260509035517 50 316 0.0 0.0 0.00 0.00 0.00 90 1018.8
20260509035019 50 318 0.0 6.0 0.00 0.00 0.00 90 1018.8
20260509034517 50 318 1.0 6.0 0.00 0.00 0.00 90 1018.8
20260509034016 50 182 0.0 3.0 0.00 0.00 0.00 90 1018.7
20260509033519 50 182 0.0 3.0 0.00 0.00 0.00 90 1018.6
20260509033019 50 182 0.0 3.0 0.00 0.00 0.00 89 1018.5
20260509032521 50 182 0.0 3.0 0.00 0.00 0.00 89 1018.6
20260509032013 50 182 0.0 0.0 0.00 0.00 0.00 89 1018.8
20260509031513 50 182 0.0 1.0 0.00 0.00 0.00 89 1018.9
20260509031012 50 182 0.0 1.0 0.00 0.00 0.00 89 1018.9
20260509030512 50 182 0.0 0.0 0.00 0.00 0.00 89 1018.9
20260509030018 50 182 0.0 0.0 0.00 0.00 0.00 89 1018.9
20260509025510 51 182 0.0 1.0 0.00 0.00 0.00 89 1018.9
20260509025010 51 182 0.0 2.0 0.00 0.00 0.00 89 1019.0
20260509024510 51 182 0.0 3.0 0.00 0.00 0.00 89 1019.0
20260509024016 51 182 0.0 4.0 0.00 0.00 0.00 89 1019.0
20260509023610 51 182 1.0 4.0 0.00 0.00 0.00 89 1019.0
20260509023010 51 182 1.0 3.0 0.00 0.00 0.00 88 1019.0
20260509022511 51 182 0.0 2.0 0.00 0.00 0.00 88 1019.0
20260509022009 51 182 0.0 0.0 0.00 0.00 0.00 88 1019.0
20260509021509 51 182 0.0 0.0 0.00 0.00 0.00 88 1018.9
20260509021008 51 182 0.0 0.0 0.00 0.00 0.00 88 1019.0
20260509020507 51 182 0.0 2.0 0.00 0.00 0.00 88 1019.1
20260509020007 51 182 0.0 2.0 0.00 0.00 0.00 88 1019.0
20260509015508 51 182 0.0 1.0 0.00 0.00 0.00 88 1019.0
20260509015010 51 182 0.0 0.0 0.00 0.00 0.00 87 1019.0
20260509014507 52 182 0.0 0.0 0.00 0.00 0.00 87 1019.0
20260509014005 52 182 0.0 0.0 0.00 0.00 0.00 87 1019.0
20260509013505 52 182 0.0 0.0 0.00 0.00 0.00 87 1019.0
20260509013006 52 182 0.0 0.0 0.00 0.00 0.00 87 1019.0
20260509012505 52 182 0.0 0.0 0.00 0.00 0.00 86 1019.0
20260509012004 52 182 0.0 1.0 0.00 0.00 0.00 86 1019.0
20260509011507 52 182 0.0 1.0 0.00 0.00 0.00 86 1019.0
20260509011005 52 182 0.0 0.0 0.00 0.00 0.00 86 1019.0
20260509010502 52 182 0.0 0.0 0.00 0.00 0.00 86 1019.0
20260509010007 52 182 0.0 1.0 0.00 0.00 0.00 86 1019.0
20260509005501 52 182 0.0 2.0 0.00 0.00 0.00 86 1019.0
20260509005002 53 182 0.0 1.0 0.00 0.00 0.00 85 1019.0
20260509004604 53 182 0.0 0.0 0.00 0.00 0.00 85 1019.0
20260509004103 53 182 0.0 0.0 0.00 0.00 0.00 85 1019.0
20260509003559 53 182 0.0 0.0 0.00 0.00 0.00 84 1018.9
20260509003059 53 182 0.0 0.0 0.00 0.00 0.00 84 1019.0
20260509002558 53 182 0.0 0.0 0.00 0.00 0.00 84 1019.0
20260509002100 54 182 0.0 1.0 0.00 0.00 0.00 84 1019.0
20260509001558 54 182 0.0 2.0 0.00 0.00 0.00 83 1018.9
20260509001056 54 182 0.0 2.0 0.00 0.00 0.00 83 1019.0
20260509000557 54 182 0.0 0.0 0.00 0.00 0.00 83 1018.9
20260509000055 54 182 0.0 0.0 0.00 0.00 0.00 83 1019.0
20260508235554 55 182 0.0 0.0 0.00 0.00 0.00 83 1019.0
20260508235054 55 182 0.0 0.0 0.00 0.00 0.00 82 1019.0
20260508234556 55 182 0.0 0.0 0.00 0.00 0.00 82 1019.0
20260508234055 55 182 0.0 0.0 0.00 0.00 0.00 82 1019.1
20260508233552 55 182 0.0 0.0 0.00 0.00 0.00 81 1019.1
20260508233053 55 182 0.0 0.0 0.00 0.00 0.00 81 1019.2
20260508232550 56 182 0.0 0.0 0.00 0.00 0.00 81 1019.2
20260508232049 56 182 0.0 0.0 0.00 0.00 0.00 81 1019.3
20260508231554 56 182 0.0 0.0 0.00 0.00 0.00 80 1019.2
20260508231047 56 182 0.0 0.0 0.00 0.00 0.00 80 1019.1
20260508230545 56 182 0.0 0.0 0.00 0.00 0.00 79 1019.0
20260508230045 57 182 0.0 0.0 0.00 0.00 0.00 79 1019.0
20260508225545 57 182 0.0 0.0 0.00 0.00 0.00 79 1019.1
20260508225046 57 182 0.0 0.0 0.00 0.00 0.00 78 1019.1
20260508224602 57 182 0.0 1.0 0.00 0.00 0.00 78 1019.1
20260508224045 58 182 0.0 1.0 0.00 0.00 0.00 78 1019.2
20260508223544 58 182 0.0 1.0 0.00 0.00 0.00 77 1019.1
20260508223042 58 182 0.0 1.0 0.00 0.00 0.00 76 1019.0
20260508222542 58 182 0.0 1.0 0.00 0.00 0.00 76 1019.1
20260508222040 59 182 0.0 0.0 0.00 0.00 0.00 76 1019.0
20260508221548 59 182 0.0 0.0 0.00 0.00 0.00 75 1018.9
20260508221038 59 182 0.0 0.0 0.00 0.00 0.00 75 1018.8
20260508220539 59 182 0.0 0.0 0.00 0.00 0.00 75 1018.8
20260508220036 59 182 0.0 0.0 0.00 0.00 0.00 75 1018.7
20260508215535 60 182 0.0 2.0 0.00 0.00 0.00 75 1018.7
20260508215036 60 182 0.0 2.0 0.00 0.00 0.00 74 1018.7
20260508214540 60 182 0.0 2.0 0.00 0.00 0.00 74 1018.8
20260508214036 60 182 0.0 2.0 0.00 0.00 0.00 74 1018.7
20260508213535 60 182 0.0 3.0 0.00 0.00 0.00 73 1018.7
20260508213037 61 182 0.0 3.0 0.00 0.00 0.00 73 1018.6
20260508212535 61 182 0.0 2.0 0.00 0.00 0.00 72 1018.4
20260508212035 61 182 0.0 2.0 0.00 0.00 0.00 71 1018.4
20260508211536 61 182 0.0 3.0 0.00 0.00 0.00 71 1018.5
20260508211034 62 182 0.0 3.0 0.00 0.00 0.00 71 1018.5
20260508210534 62 182 0.0 4.0 0.00 0.00 0.00 70 1018.4
20260508210036 62 182 0.0 4.0 0.00 0.00 0.00 70 1018.4
20260508205534 62 182 1.0 4.0 0.00 0.00 0.00 70 1018.3
20260508205035 63 182 0.0 0.0 0.00 0.00 0.00 70 1018.4
20260508204535 63 182 0.0 0.0 0.00 0.00 0.00 70 1018.4
20260508204033 63 182 0.0 0.0 0.00 0.00 0.00 70 1018.4
20260508203533 63 182 0.0 1.0 0.00 0.00 0.00 70 1018.5
20260508203035 63 182 0.0 0.0 0.00 0.00 0.00 70 1018.5
20260508202534 63 182 0.0 0.0 0.00 0.00 0.00 69 1018.5
20260508202035 64 182 0.0 3.0 0.00 0.00 0.00 69 1018.4
20260508201538 64 182 0.0 3.0 0.00 0.00 0.00 69 1018.4
20260508201033 64 182 0.0 0.0 0.00 0.00 0.00 68 1018.5
20260508200533 64 182 0.0 0.0 0.00 0.00 0.00 68 1018.4
20260508200044 64 182 0.0 0.0 0.00 0.00 0.00 67 1018.3
20260508195532 64 182 0.0 1.0 0.00 0.00 0.00 67 1018.2
20260508195034 64 182 0.0 1.0 0.00 0.00 0.00 67 1018.1
20260508194532 64 182 0.0 3.0 0.00 0.00 0.00 67 1018.0
20260508194031 64 182 0.0 3.0 0.00 0.00 0.00 67 1017.9
20260508193532 65 294 0.0 3.0 0.00 0.00 0.00 67 1017.7
20260508193037 65 309 1.0 3.0 0.00 0.00 0.00 66 1017.5
20260508192532 65 22 0.0 2.0 0.00 0.00 0.00 66 1017.4
20260508192032 65 22 0.0 3.0 0.00 0.00 0.00 65 1017.3
20260508191533 65 22 0.0 3.0 0.00 0.00 0.00 65 1017.1
20260508191031 66 339 0.0 3.0 0.00 0.00 0.00 64 1016.9
20260508190631 66 194 0.0 2.0 0.00 0.00 0.00 64 1017.0
20260508190030 66 194 0.0 2.0 0.00 0.00 0.00 63 1017.0
20260508185530 66 198 0.0 1.0 0.00 0.00 0.00 62 1016.9
20260508185030 66 198 0.0 2.0 0.00 0.00 0.00 62 1016.8
20260508184530 67 198 0.0 5.0 0.00 0.00 0.00 62 1016.8
20260508184029 67 225 1.0 5.0 0.00 0.00 0.00 61 1016.8
20260508183529 67 315 0.0 3.0 0.00 0.00 0.00 59 1016.7
20260508183030 67 323 0.0 3.0 0.00 0.00 0.00 58 1016.6
20260508182529 67 323 1.0 5.0 0.00 0.00 0.00 58 1016.5
20260508182031 68 316 0.0 5.0 0.00 0.00 0.00 56 1016.6
20260508181530 68 296 0.0 5.0 0.00 0.00 0.00 55 1016.5
20260508181032 68 311 1.0 5.0 0.00 0.00 0.00 54 1016.5
20260508180529 69 236 0.0 2.0 0.00 0.00 0.00 53 1016.5
20260508180031 69 285 0.0 3.0 0.00 0.00 0.00 52 1016.4
20260508175530 69 285 0.0 5.0 0.00 0.00 0.00 51 1016.4
20260508175028 70 226 1.0 5.0 0.00 0.00 0.00 50 1016.3
20260508174530 70 224 0.0 3.0 0.00 0.00 0.00 49 1016.1
20260508174028 70 211 0.0 4.0 0.00 0.00 0.00 48 1016.1
20260508173528 70 221 1.0 4.0 0.00 0.00 0.00 46 1015.9
20260508173029 71 246 0.0 3.0 0.00 0.00 0.00 45 1016.0
20260508172528 71 337 0.0 4.0 0.00 0.00 0.00 45 1016.0
20260508172028 71 221 0.0 4.0 0.00 0.00 0.00 44 1016.0
20260508171534 71 234 0.0 3.0 0.00 0.00 0.00 44 1015.8
20260508171029 71 319 1.0 3.0 0.00 0.00 0.00 43 1015.9
20260508170527 70 279 0.0 6.0 0.00 0.00 0.00 43 1015.8
20260508170028 70 221 1.0 10.0 0.00 0.00 0.00 44 1015.7
20260508165527 71 338 1.0 10.0 0.00 0.00 0.00 45 1015.7
20260508165027 71 11 1.0 5.0 0.00 0.00 0.00 45 1015.7
20260508164526 71 170 1.0 4.0 0.00 0.00 0.00 44 1015.7
20260508164026 71 32 0.0 5.0 0.00 0.00 0.00 43 1015.7
20260508163527 71 304 0.0 6.0 0.00 0.00 0.00 42 1015.7
20260508163027 71 257 2.0 8.0 0.00 0.00 0.00 42 1015.7
20260508162526 71 320 1.0 8.0 0.00 0.00 0.00 41 1015.7
20260508162029 72 279 2.0 5.0 0.00 0.00 0.00 41 1015.7
20260508161534 71 311 0.0 4.0 0.00 0.00 0.00 44 1015.7
20260508161025 71 290 0.0 5.0 0.00 0.00 0.00 44 1015.7
20260508160524 71 304 2.0 8.0 0.00 0.00 0.00 44 1015.8
20260508160027 71 316 4.0 8.0 0.00 0.00 0.00 42 1015.8
20260508155528 71 325 1.0 6.0 0.00 0.00 0.00 43 1015.8
20260508155023 71 197 1.0 5.0 0.00 0.00 0.00 44 1015.8
20260508154524 71 215 1.0 5.0 0.00 0.00 0.00 44 1015.8
20260508154025 71 21 1.0 5.0 0.00 0.00 0.00 43 1015.8
20260508153523 71 189 1.0 4.0 0.00 0.00 0.00 42 1015.8
20260508153024 71 196 2.0 5.0 0.00 0.00 0.00 42 1015.8
20260508152523 71 5 1.0 6.0 0.00 0.00 0.00 42 1015.8
20260508152026 71 254 2.0 6.0 0.00 0.00 0.00 42 1015.8
20260508151522 71 287 3.0 8.0 0.00 0.00 0.00 43 1015.8
20260508151026 71 233 3.0 8.0 0.00 0.00 0.00 44 1016.0
20260508150521 72 228 1.0 4.0 0.00 0.00 0.00 45 1016.0
20260508150023 72 188 0.0 6.0 0.00 0.00 0.00 44 1015.9
20260508145520 72 345 3.0 6.0 0.00 0.00 0.00 44 1016.0
20260508145020 72 230 2.0 6.0 0.00 0.00 0.00 43 1016.1
20260508144535 72 293 0.0 6.0 0.00 0.00 0.00 43 1016.1
20260508144019 72 182 2.0 8.0 0.00 0.00 0.00 43 1016.1
20260508143521 72 194 3.0 8.0 0.00 0.00 0.00 44 1016.2
20260508143027 72 74 1.0 8.0 0.00 0.00 0.00 43 1016.3
20260508142518 73 330 1.0 6.0 0.00 0.00 0.00 43 1016.3
20260508142019 73 229 2.0 5.0 0.00 0.00 0.00 41 1016.3
20260508141523 73 192 1.0 5.0 0.00 0.00 0.00 40 1016.3
20260508141015 72 191 1.0 7.0 0.00 0.00 0.00 41 1016.3
20260508140515 72 183 2.0 7.0 0.00 0.00 0.00 41 1016.4
20260508140015 72 229 1.0 6.0 0.00 0.00 0.00 41 1016.4
20260508135515 72 190 1.0 6.0 0.00 0.00 0.00 42 1016.5
20260508135014 71 309 2.0 6.0 0.00 0.00 0.00 43 1016.6
20260508134514 72 212 2.0 6.0 0.00 0.00 0.00 39 1016.5
20260508134013 71 205 0.0 4.0 0.00 0.00 0.00 42 1016.4
20260508133513 71 270 2.0 6.0 0.00 0.00 0.00 42 1016.5
20260508133013 71 320 2.0 6.0 0.00 0.00 0.00 44 1016.5
20260508132512 72 314 1.0 6.0 0.00 0.00 0.00 46 1016.6
20260508132011 71 350 2.0 6.0 0.00 0.00 0.00 44 1016.6
20260508131510 71 267 1.0 8.0 0.00 0.00 0.00 47 1016.7
20260508131015 71 343 3.0 8.0 0.00 0.00 0.00 45 1016.7
20260508130508 71 341 1.0 6.0 0.00 0.00 0.00 50 1016.7
20260508130010 70 348 0.0 8.0 0.00 0.00 0.00 54 1016.8
20260508125507 70 213 2.0 9.0 0.00 0.00 0.00 49 1016.9
20260508125007 71 327 3.0 8.0 0.00 0.00 0.00 52 1016.9
20260508124506 70 223 1.0 5.0 0.00 0.00 0.00 52 1017.0
20260508124006 71 227 1.0 4.0 0.00 0.00 0.00 52 1017.0
20260508123505 71 289 1.0 6.0 0.00 0.00 0.00 53 1017.1
20260508123006 70 220 1.0 8.0 0.00 0.00 0.00 54 1017.1
20260508122504 69 246 1.0 8.0 0.00 0.00 0.00 57 1017.1
20260508122003 69 320 3.0 5.0 0.00 0.00 0.00 55 1017.1
20260508121504 69 333 1.0 9.0 0.00 0.00 0.00 57 1017.1
20260508121002 69 315 3.0 9.0 0.00 0.00 0.00 58 1017.1
20260508120502 70 233 2.0 9.0 0.00 0.00 0.00 58 1017.2
20260508120003 71 306 2.0 9.0 0.00 0.00 0.00 57 1017.2
20260508115601 70 330 1.0 4.0 0.00 0.00 0.00 58 1017.2
20260508115059 70 90 1.0 3.0 0.00 0.00 0.00 59 1017.3
20260508114603 69 350 0.0 6.0 0.00 0.00 0.00 63 1017.3
20260508114058 68 215 2.0 6.0 0.00 0.00 0.00 61 1017.4
20260508113557 68 60 1.0 8.0 0.00 0.00 0.00 63 1017.4
20260508113124 68 207 1.0 4.0 0.00 0.00 0.00 64 1017.5
20260508112556 68 343 1.0 5.0 0.00 0.00 0.00 63 1017.5
20260508112056 68 267 0.0 6.0 0.00 0.00 0.00 64 1017.5
20260508111556 68 217 1.0 6.0 0.00 0.00 0.00 63 1017.6
20260508111054 68 345 1.0 6.0 0.00 0.00 0.00 63 1017.6
20260508110553 67 201 1.0 8.0 0.00 0.00 0.00 65 1017.5
20260508110052 67 215 1.0 6.0 0.00 0.00 0.00 64 1017.6
20260508105552 67 233 2.0 6.0 0.00 0.00 0.00 64 1017.7
20260508105050 68 178 0.0 6.0 0.00 0.00 0.00 64 1017.8
20260508104556 68 304 0.0 3.0 0.00 0.00 0.00 64 1017.8
20260508104049 67 217 0.0 6.0 0.00 0.00 0.00 64 1017.8
20260508103549 67 226 2.0 7.0 0.00 0.00 0.00 66 1017.9
20260508103050 67 44 0.0 3.0 0.00 0.00 0.00 65 1017.8
20260508102547 67 44 1.0 3.0 0.00 0.00 0.00 65 1017.9
20260508102047 67 46 1.0 4.0 0.00 0.00 0.00 68 1018.1
20260508101549 66 173 2.0 4.0 0.00 0.00 0.00 65 1018.1
20260508101046 66 173 2.0 5.0 0.00 0.00 0.00 65 1018.1
20260508100544 67 170 0.0 5.0 0.00 0.00 0.00 64 1018.3
20260508100043 66 99 1.0 4.0 0.00 0.00 0.00 66 1018.1
20260508095543 66 262 0.0 3.0 0.00 0.00 0.00 65 1018.2
20260508095043 65 236 1.0 5.0 0.00 0.00 0.00 65 1018.2
20260508094541 65 164 1.0 7.0 0.00 0.00 0.00 65 1018.3
20260508094040 66 76 1.0 7.0 0.00 0.00 0.00 61 1018.4
20260508093539 66 69 1.0 5.0 0.00 0.00 0.00 64 1018.3
20260508093038 65 169 1.0 4.0 0.00 0.00 0.00 64 1018.3
20260508092536 65 153 0.0 4.0 0.00 0.00 0.00 64 1018.4
20260508092034 64 32 0.0 4.0 0.00 0.00 0.00 65 1018.4
20260508091534 64 87 1.0 4.0 0.00 0.00 0.00 65 1018.5
20260508091033 63 77 1.0 5.0 0.00 0.00 0.00 65 1018.6
20260508090531 63 117 1.0 4.0 0.00 0.00 0.00 67 1018.6
20260508090039 62 117 1.0 3.0 0.00 0.00 0.00 68 1018.7
20260508085529 61 24 0.0 3.0 0.00 0.00 0.00 70 1018.6
20260508085027 61 68 0.0 4.0 0.00 0.00 0.00 70 1018.7
20260508084527 60 70 1.0 4.0 0.00 0.00 0.00 71 1018.7
20260508084025 59 60 0.0 5.0 0.00 0.00 0.00 74 1018.7
20260508083523 59 30 2.0 4.0 0.00 0.00 0.00 75 1018.7
20260508083021 58 89 0.0 3.0 0.00 0.00 0.00 76 1018.7
20260508082524 58 84 0.0 4.0 0.00 0.00 0.00 77 1018.7
20260508082019 57 42 0.0 5.0 0.00 0.00 0.00 77 1018.7
20260508081518 57 51 0.0 5.0 0.00 0.00 0.00 78 1018.7
20260508081020 56 315 0.0 7.0 0.00 0.00 0.00 78 1018.6
20260508080514 56 139 2.0 7.0 0.00 0.00 0.00 80 1018.7
20260508080016 55 109 1.0 5.0 0.00 0.01 0.00 81 1018.6
20260508075512 55 142 0.0 0.0 0.00 0.01 0.00 83 1018.7
20260508075011 54 77 0.0 0.0 0.00 0.01 0.00 84 1018.7
20260508074515 54 71 0.0 0.0 0.00 0.01 0.00 85 1018.7
20260508074008 53 63 0.0 0.0 0.00 0.01 0.00 86 1018.7
20260508073509 53 337 0.0 0.0 0.00 0.01 0.00 86 1018.7
20260508073007 52 338 0.0 0.0 0.00 0.01 0.00 88 1018.8
20260508072504 52 236 0.0 0.0 0.00 0.01 0.00 89 1018.8
20260508072003 51 238 0.0 0.0 0.00 0.01 0.00 89 1018.9
20260508071503 51 246 0.0 0.0 0.00 0.01 0.00 90 1019.0
20260508071001 50 246 0.0 0.0 0.00 0.01 0.00 91 1019.1
20260508070601 50 246 0.0 0.0 0.00 0.01 0.00 91 1019.1
20260508065558 49 255 0.0 0.0 0.00 0.04 0.00 92 1019.1
20260508065058 49 255 0.0 0.0 0.00 0.04 0.00 92 1019.1
20260508064608 49 255 0.0 0.0 0.00 0.04 0.00 92 1019.1
20260508064100 48 255 0.0 0.0 0.00 0.04 0.00 92 1019.1
20260508063557 48 254 0.0 0.0 0.00 0.04 0.00 92 1019.0
20260508063056 48 254 0.0 0.0 0.00 0.04 0.00 93 1018.9
20260508062555 47 254 0.0 0.0 0.00 0.04 0.00 93 1018.9
20260508062055 47 254 0.0 0.0 0.00 0.04 0.00 93 1018.9
20260508061600 46 254 0.0 0.0 0.00 0.04 0.00 93 1018.9
20260508061054 46 254 0.0 2.0 0.00 0.04 0.00 93 1018.8
20260508060553 46 254 0.0 3.0 0.00 0.04 0.00 93 1018.8
20260508060052 45 254 0.0 1.0 0.00 0.07 0.00 93 1018.7
20260508055553 45 254 0.0 0.0 0.00 0.07 0.00 93 1018.8
20260508055050 45 254 0.0 2.0 0.00 0.07 0.00 93 1018.8
20260508054617 44 254 0.0 2.0 0.00 0.07 0.00 93 1018.7
20260508054053 44 254 0.0 2.0 0.00 0.07 0.00 92 1018.7
20260508053549 44 254 0.0 2.0 0.00 0.07 0.00 92 1018.7
20260508053049 44 254 0.0 2.0 0.00 0.07 0.00 92 1018.8
20260508052554 44 254 0.0 2.0 0.00 0.07 0.00 92 1018.7
20260508052049 44 253 0.0 2.0 0.00 0.07 0.00 92 1018.7
20260508051548 44 253 0.0 2.0 0.00 0.07 0.00 92 1018.7
20260508051048 43 253 0.0 2.0 0.00 0.07 0.00 92 1018.6
20260508050546 43 254 0.0 2.0 0.00 0.07 0.00 92 1018.6
20260508050046 43 254 0.0 2.0 0.00 0.07 0.00 92 1018.6
20260508045545 43 254 0.0 2.0 0.00 0.07 0.00 92 1018.6
20260508045045 43 252 0.0 2.0 0.00 0.07 0.00 92 1018.7
20260508044545 43 252 0.0 2.0 0.00 0.07 0.00 92 1018.7
20260508044045 43 252 0.0 2.0 0.00 0.07 0.00 92 1018.7
20260508043543 43 252 0.0 2.0 0.00 0.07 0.00 92 1018.7
20260508043048 43 252 0.0 2.0 0.00 0.07 0.00 92 1018.6
20260508042546 43 252 0.0 4.0 0.00 0.07 0.00 92 1018.6
20260508042041 43 252 0.0 4.0 0.00 0.07 0.00 92 1018.6
20260508041540 43 250 0.0 3.0 0.00 0.07 0.00 92 1018.5
20260508041043 43 250 0.0 3.0 0.00 0.07 0.00 92 1018.5
20260508040539 43 249 0.0 0.0 0.00 0.07 0.00 91 1018.5
20260508040048 43 247 0.0 0.0 0.00 0.08 0.00 91 1018.6
20260508035541 43 247 0.0 0.0 0.00 0.08 0.00 91 1018.4